TimeEST,TemperatureF,Dew PointF,Humidity,Sea Level PressureIn,VisibilityMPH,Wind Direction,Wind SpeedMPH,Gust SpeedMPH,PrecipitationIn,Events,Conditions,WindDirDegrees,DateUTC
12:08 AM,35.6,33.8,93,30.10,7.0,WSW,5.8,-,N/A,,Overcast,240,2012-11-10 05:08:00
12:25 AM,35.6,32.0,87,30.10,7.0,WSW,3.5,-,N/A,,Overcast,240,2012-11-10 05:25:00
12:38 AM,35.6,33.8,93,30.10,7.0,West,4.6,-,N/A,,Overcast,260,2012-11-10 05:38:00
12:51 AM,35.1,33.1,92,30.15,8.0,Variable,4.6,-,N/A,,Overcast,0,2012-11-10 05:51:00
1:27 AM,35.6,32.0,87,30.11,9.0,Calm,Calm,-,N/A,,Overcast,0,2012-11-10 06:27:00
1:51 AM,36.0,32.0,86,30.17,9.0,Variable,3.5,-,N/A,,Overcast,0,2012-11-10 06:51:00
2:20 AM,35.6,32.0,87,30.13,9.0,Calm,Calm,-,N/A,,Overcast,0,2012-11-10 07:20:00
2:51 AM,36.0,32.0,86,30.18,10.0,Calm,Calm,-,N/A,,Overcast,0,2012-11-10 07:51:00
3:51 AM,36.0,30.9,82,30.21,10.0,Calm,Calm,-,N/A,,Overcast,0,2012-11-10 08:51:00
4:11 AM,35.6,32.0,87,30.17,9.0,Calm,Calm,-,N/A,,Overcast,0,2012-11-10 09:11:00
4:51 AM,35.1,32.0,89,30.23,9.0,West,3.5,-,N/A,,Overcast,280,2012-11-10 09:51:00
5:28 AM,35.6,32.0,87,30.19,9.0,Calm,Calm,-,N/A,,Overcast,0,2012-11-10 10:28:00
5:51 AM,35.1,30.9,85,30.25,10.0,WNW,4.6,-,N/A,,Overcast,290,2012-11-10 10:51:00
6:51 AM,34.0,30.0,85,30.27,10.0,NW,3.5,-,N/A,,Overcast,320,2012-11-10 11:51:00
7:51 AM,33.1,27.0,78,30.31,10.0,Calm,Calm,-,N/A,,Overcast,0,2012-11-10 12:51:00
8:36 AM,33.8,26.6,75,30.26,10.0,NW,3.5,-,N/A,,Scattered Clouds,310,2012-11-10 13:36:00
8:51 AM,34.0,26.1,73,30.31,10.0,Variable,3.5,-,N/A,,Partly Cloudy,0,2012-11-10 13:51:00
9:51 AM,36.0,25.0,64,30.32,10.0,WNW,3.5,-,N/A,,Clear,300,2012-11-10 14:51:00
10:51 AM,37.9,24.1,57,30.33,10.0,Calm,Calm,-,N/A,,Clear,0,2012-11-10 15:51:00
11:51 AM,39.9,19.0,43,30.31,10.0,ENE,4.6,-,N/A,,Clear,60,2012-11-10 16:51:00
12:51 PM,41.0,14.0,33,30.30,10.0,Variable,3.5,-,N/A,,Clear,0,2012-11-10 17:51:00
1:51 PM,43.0,15.1,32,30.29,10.0,Calm,Calm,-,N/A,,Clear,0,2012-11-10 18:51:00
2:51 PM,44.1,15.1,31,30.29,10.0,Calm,Calm,-,N/A,,Clear,0,2012-11-10 19:51:00
3:51 PM,43.0,14.0,31,30.29,10.0,East,3.5,-,N/A,,Clear,90,2012-11-10 20:51:00
5:51 PM,30.9,24.1,76,30.36,10.0,NE,3.5,-,N/A,,Clear,40,2012-11-10 22:51:00
6:51 PM,33.1,25.0,72,30.38,10.0,ENE,5.8,-,N/A,,Overcast,60,2012-11-10 23:51:00
7:51 PM,33.1,24.1,70,30.38,10.0,ENE,6.9,-,N/A,,Overcast,70,2012-11-11 00:51:00
8:51 PM,33.1,24.1,70,30.36,10.0,NE,4.6,-,N/A,,Overcast,50,2012-11-11 01:51:00
9:51 PM,33.1,25.0,72,30.37,10.0,NE,3.5,-,0.00,,Overcast,50,2012-11-11 02:51:00
10:51 PM,30.9,27.0,85,30.35,10.0,NE,3.5,-,0.00,,Mostly Cloudy,40,2012-11-11 03:51:00
11:51 PM,32.0,27.0,82,30.35,10.0,NE,4.6,-,N/A,,Overcast,50,2012-11-11 04:51:00